[[{"header":{"parameterUnit":"m.s-1","parameterCategory":1,"la1":30.2991,"la2":30.254,"lo1":-89.0895,"lo2":-89.0444,"dy":0.0017,"dx":0.0017,"nx":28,"ny":28,"refTime":"2024-05-11T09:00:00:Z","depth":0,"parameterNumber":2,"parameterNumberName":"U-component_of_WINDS"},"data":[0,0,0,0,0,0,0,0,0,0,0,0,0,0,0,0,0,0,0,0,0,0,0,0,0,0,0,0,0,0,0,0,0,0,0,0,0,0,0,0,0,0,0,0,0,0,0,0,0,0,0,0,0,0,0,0,0,0,-0.7289,-0.7289,0,-0.7267,-0.7267,-0.7267,-0.7273,-0.7273,-0.7274,-0.7274,-0.7249,-0.7248,-0.7247,0,0,0,0,0,0,0,0,0,0,0,0,0,-0.7333,-0.7332,-0.7289,-0.7289,-0.7288,-0.7268,-0.7267,-0.7267,-0.7273,-0.7273,-0.7274,-0.7275,-0.725,-0.7248,-0.7247,0,0,0,0,0,0,0,0,0,0,0,0,0,-0.7313,-0.7331,-0.7289,-0.7289,-0.7289,-0.7268,-0.7267,-0.7267,-0.7273,-0.7274,-0.7274,-0.7275,-0.725,-0.7249,-0.7247,-0.7224,0,0,-0.7242,-0.7241,0,0,0,0,0,0,0,0,-0.7314,-0.7311,-0.7289,-0.7289,-0.7289,-0.7274,-0.7273,-0.7252,-0.7273,-0.7279,-0.7274,-0.7275,-0.7257,-0.7255,-0.7249,-0.7222,-0.7221,-0.7242,-0.7241,-0.724,-0.724,0,0,0,0,0,0,0,-0.7315,-0.7312,-0.728,-0.7289,-0.7289,-0.7289,-0.7287,-0.7269,-0.7264,-0.7278,-0.7279,-0.7276,-0.7257,-0.7251,-0.7248,-0.7221,-0.7242,-0.7241,-0.724,-0.7239,-0.7174,-0.7174,0,0,0,0,0,0,-0.7317,-0.7313,-0.7281,-0.728,-0.7303,-0.7288,-0.7286,-0.7278,-0.7264,-0.7263,-0.7276,-0.7277,-0.7253,-0.725,-0.7248,-0.7219,-0.724,-0.7239,-0.7238,-0.7175,-0.7174,-0.7173,0,0,0,0,0,0,-0.7318,-0.7314,-0.7282,-0.7296,-0.7292,-0.7286,-0.7278,-0.7277,-0.7271,-0.7262,-0.7261,-0.7271,-0.7253,-0.725,-0.723,-0.7219,-0.7238,-0.7237,-0.7176,-0.7175,-0.7174,-0.7163,0,0,0,0,0,0,-0.7319,-0.7314,-0.7306,-0.7296,-0.7292,-0.7265,-0.7277,-0.7276,-0.7268,-0.7269,-0.7257,-0.7256,-0.7254,-0.7232,-0.7228,-0.7217,-0.7235,-0.7177,-0.7175,-0.7174,-0.7164,-0.7161,-0.7159,0,0,0,0,0,-0.7321,-0.7303,-0.7306,-0.7302,-0.7281,-0.7264,-0.7262,-0.726,-0.7268,-0.7259,-0.7253,-0.7256,-0.7221,-0.723,-0.7226,-0.7213,-0.7177,-0.7176,-0.7174,-0.7165,-0.7162,-0.7159,0,0,0,0,0,0,-0.731,-0.7302,-0.7304,-0.7283,-0.7275,-0.7266,-0.7254,-0.7257,-0.7245,-0.7246,-0.7244,-0.7242,-0.7221,-0.7215,-0.7226,-0.719,-0.72,-0.7197,-0.7195,-0.7191,-0.7189,-0.719,-0.7234,0,0,0,0,0,-0.7306,-0.7294,-0.7287,-0.7269,-0.7265,-0.726,-0.7253,-0.7253,-0.7243,-0.7239,-0.7232,-0.7222,-0.7209,-0.72,-0.7187,-0.7163,-0.7161,-0.7153,-0.715,-0.7148,-0.7146,-0.7133,-0.7129,-0.7168,-0.7168,-0.7168,0,0,-0.7296,-0.729,-0.7282,-0.7267,-0.726,-0.7247,-0.7257,-0.7243,-0.7233,-0.7237,-0.7218,-0.7212,-0.7201,-0.7179,-0.7169,-0.7173,-0.7135,-0.7146,-0.7145,-0.7143,-0.7131,-0.7127,-0.7124,-0.7167,-0.7167,-0.7167,0,0,-0.7272,-0.7266,-0.725,-0.7244,-0.7234,-0.7231,-0.7228,-0.7218,-0.7215,-0.7196,-0.7199,-0.7187,-0.7164,-0.7155,-0.7148,-0.7121,-0.7123,-0.7117,-0.7104,-0.7091,-0.7088,-0.7085,-0.7075,-0.7072,-0.7115,-0.7115,-0.7115,0,-0.726,-0.7242,-0.7242,-0.7227,-0.722,-0.7225,-0.7208,-0.7202,-0.7188,-0.7182,-0.7188,-0.7159,-0.7152,-0.7128,-0.7122,-0.7116,-0.7111,-0.7118,-0.7088,-0.7086,-0.7083,-0.7074,-0.707,-0.7114,-0.7114,-0.7114,-0.7114,0,-0.7228,-0.7215,-0.7203,-0.7191,-0.7183,-0.7167,-0.7165,-0.7156,-0.7156,-0.7153,-0.7133,-0.7125,-0.711,-0.7105,-0.7105,-0.7081,-0.7084,-0.7089,-0.7099,-0.7079,-0.707,-0.7066,-0.7113,-0.7113,-0.7113,-0.7113,0,0,-0.7196,-0.7184,-0.718,-0.7175,-0.7164,-0.7154,-0.7138,-0.7125,-0.7118,-0.7108,-0.7095,-0.7076,-0.708,-0.7072,-0.7071,-0.706,-0.7039,-0.7067,-0.7066,-0.7061,-0.7012,-0.7008,-0.7004,-0.7041,-0.704,-0.704,-0.7013,0,-0.717,-0.7144,-0.7144,-0.712,-0.7108,-0.7112,-0.7099,-0.7091,-0.7087,-0.7075,-0.7071,-0.7057,-0.7065,-0.706,-0.7049,-0.7044,-0.7029,-0.7046,-0.7028,-0.7027,-0.703,-0.6999,-0.6995,-0.697,-0.7009,-0.7009,-0.7008,0,-0.7136,-0.7127,-0.7102,-0.7094,-0.7088,-0.7076,-0.7065,-0.7054,-0.7044,-0.7043,-0.7034,-0.7035,-0.7019,-0.703,-0.7007,-0.7018,-0.7011,-0.7007,-0.7006,-0.7004,-0.7016,-0.6995,-0.6962,-0.6958,-0.7003,-0.7003,-0.7004,0,-0.7115,-0.7096,-0.7078,-0.7073,-0.7063,-0.7055,-0.705,-0.7042,-0.7034,-0.7023,-0.7018,-0.7005,-0.6998,-0.6988,-0.6985,-0.6993,-0.6962,-0.6973,-0.696,-0.696,-0.6953,-0.6953,-0.6917,-0.6949,-0.6949,-0.6949,-0.6949,0,-0.7086,-0.707,-0.7069,-0.7058,-0.704,-0.704,-0.7023,-0.7018,-0.7011,-0.6999,-0.7001,-0.699,-0.6987,-0.6975,-0.6973,-0.6954,-0.6951,-0.6949,-0.6948,-0.6948,-0.6948,-0.6943,-0.6944,-0.6948,-0.6948,-0.6948,-0.6948,0,-0.7059,-0.7057,-0.7039,-0.7031,-0.7029,-0.7016,-0.7009,-0.6999,-0.6996,-0.698,-0.6977,-0.6972,-0.6957,-0.6954,-0.6937,-0.6935,-0.6913,-0.6914,-0.6917,-0.6916,-0.6903,-0.6904,-0.6862,-0.6856,-0.6892,-0.6892,-0.6891,0,-0.7041,-0.7029,-0.702,-0.7013,-0.7008,-0.6996,-0.6988,-0.6988,-0.6979,-0.6968,-0.6959,-0.6945,-0.6934,-0.6911,-0.6905,-0.6892,-0.6893,-0.6879,-0.6891,-0.6891,-0.6892,-0.6893,-0.6891,-0.6876,-0.6876,-0.6876,-0.6875,0,-0.7008,-0.7008,-0.6997,-0.6986,-0.6977,-0.6968,-0.696,-0.6953,-0.6951,-0.6942,-0.6928,-0.6919,-0.6902,-0.6888,-0.6875,-0.687,-0.6872,-0.6872,-0.6868,-0.6868,-0.6869,-0.6868,-0.691,-0.6872,-0.6873,-0.6873,-0.6873,-0.6873,-0.6984,-0.6974,-0.6967,-0.6955,-0.6948,-0.694,-0.693,-0.6926,-0.6915,-0.6902,-0.6902,-0.6886,-0.6877,-0.686,-0.6854,-0.6841,-0.6845,-0.684,-0.6838,-0.6837,-0.6836,-0.6872,-0.6839,-0.6839,-0.6839,-0.6839,-0.6839,0,-0.6951,-0.6947,-0.6936,-0.6925,-0.6915,-0.6919,-0.691,-0.6902,-0.6888,-0.688,-0.687,-0.6853,-0.684,-0.6834,-0.682,-0.6811,-0.6812,-0.6808,-0.6808,-0.6807,-0.6833,-0.6837,-0.6808,-0.6808,-0.6808,-0.6808,-0.6808,-0.6808,-0.6933,-0.6916,-0.6915,-0.6895,-0.689,-0.6876,-0.687,-0.6863,-0.6856,-0.6839,-0.6828,-0.6824,-0.6817,-0.6803,-0.6791,-0.6789,-0.6784,-0.6779,-0.6778,-0.6802,-0.6805,-0.6808,-0.6812,-0.6778,-0.6778,-0.6753,-0.6753,-0.6753]},{"header":{"parameterUnit":"m.s-1","parameterCategory":1,"la1":30.2991,"la2":30.254,"lo1":-89.0895,"lo2":-89.0444,"dy":0.0017,"dx":0.0017,"nx":28,"ny":28,"refTime":"2024-05-11T09:00:00:Z","depth":0,"parameterNumber":3,"parameterNumberName":"V-component_of_WINDS"},"data":[0,0,0,0,0,0,0,0,0,0,0,0,0,0,0,0,0,0,0,0,0,0,0,0,0,0,0,0,0,0,0,0,0,0,0,0,0,0,0,0,0,0,0,0,0,0,0,0,0,0,0,0,0,0,0,0,0,0,-1.0635,-1.0637,0,-1.0846,-1.0849,-1.0851,-1.0992,-1.0993,-1.0994,-1.0995,-1.1212,-1.1217,-1.1222,0,0,0,0,0,0,0,0,0,0,0,0,0,-1.0352,-1.0357,-1.0634,-1.0637,-1.064,-1.0846,-1.0849,-1.0852,-1.0992,-1.0993,-1.0994,-1.0995,-1.121,-1.1216,-1.1222,0,0,0,0,0,0,0,0,0,0,0,0,0,-1.051,-1.0358,-1.0634,-1.0734,-1.0745,-1.0846,-1.0849,-1.0853,-1.0991,-1.0993,-1.0994,-1.0996,-1.1208,-1.1216,-1.1223,-1.124,0,0,-1.1245,-1.1249,0,0,0,0,0,0,0,0,-1.0501,-1.0521,-1.0717,-1.0728,-1.074,-1.0894,-1.0829,-1.0983,-1.0991,-1.0898,-1.0995,-1.0996,-1.1105,-1.1121,-1.1158,-1.125,-1.1259,-1.1246,-1.125,-1.1254,-1.1256,0,0,0,0,0,0,0,-1.049,-1.0512,-1.0718,-1.072,-1.0734,-1.0769,-1.0793,-1.0859,-1.0991,-1.0906,-1.0917,-1.094,-1.1112,-1.115,-1.1164,-1.1263,-1.1246,-1.1252,-1.1257,-1.126,-1.1382,-1.1381,0,0,0,0,0,0,-1.0463,-1.0502,-1.0712,-1.0725,-1.0622,-1.0773,-1.08,-1.0843,-1.0991,-1.1015,-1.0939,-1.0946,-1.1137,-1.1155,-1.1172,-1.1203,-1.1254,-1.126,-1.1265,-1.1383,-1.1381,-1.138,0,0,0,0,0,0,-1.0457,-1.0481,-1.0703,-1.0617,-1.0648,-1.0777,-1.0824,-1.0847,-1.0885,-1.1015,-1.104,-1.0954,-1.1139,-1.1162,-1.1222,-1.1212,-1.1264,-1.127,-1.1384,-1.1382,-1.1381,-1.1263,0,0,0,0,0,0,-1.0448,-1.0477,-1.0485,-1.0616,-1.0652,-1.0749,-1.0823,-1.085,-1.0898,-1.0909,-1.1036,-1.1058,-1.1142,-1.1211,-1.123,-1.1223,-1.1276,-1.1386,-1.1383,-1.1381,-1.1268,-1.1257,-1.1248,0,0,0,0,0,-1.0437,-1.0443,-1.0484,-1.0509,-1.0663,-1.0748,-1.0769,-1.0865,-1.0896,-1.0905,-1.0989,-1.1054,-1.121,-1.1216,-1.1238,-1.1234,-1.1387,-1.1384,-1.1382,-1.1273,-1.1259,-1.1248,0,0,0,0,0,0,-1.0306,-1.0462,-1.0509,-1.0557,-1.0638,-1.0771,-1.0785,-1.0847,-1.0921,-1.0929,-1.1045,-1.1073,-1.1121,-1.1184,-1.1187,-1.1259,-1.1307,-1.1308,-1.1216,-1.1204,-1.1194,-1.1178,-1.1282,0,0,0,0,0,-1.0283,-1.0339,-1.0472,-1.0501,-1.0539,-1.0655,-1.0695,-1.0762,-1.0851,-1.0886,-1.0975,-1.1058,-1.1127,-1.1169,-1.1239,-1.1278,-1.1309,-1.1287,-1.1276,-1.1268,-1.1267,-1.1294,-1.1286,-1.1372,-1.1372,-1.1372,0,0,-1.0236,-1.0327,-1.0355,-1.0477,-1.0548,-1.0603,-1.0683,-1.0738,-1.078,-1.0895,-1.0958,-1.1025,-1.1127,-1.1177,-1.1203,-1.1231,-1.1251,-1.1264,-1.1256,-1.1261,-1.129,-1.1282,-1.1275,-1.137,-1.137,-1.137,0,0,-1.0177,-1.0252,-1.0285,-1.0355,-1.0461,-1.0538,-1.0546,-1.0671,-1.072,-1.0785,-1.0873,-1.0925,-1.104,-1.1109,-1.1159,-1.1129,-1.1192,-1.1149,-1.1095,-1.112,-1.1113,-1.1107,-1.1097,-1.1092,-1.1148,-1.1148,-1.1148,0,-1.0104,-1.0191,-1.0294,-1.0345,-1.0396,-1.0503,-1.0538,-1.06,-1.0724,-1.0757,-1.0786,-1.0934,-1.101,-1.1078,-1.107,-1.1107,-1.1121,-1.1134,-1.1105,-1.1101,-1.1098,-1.1089,-1.1085,-1.1142,-1.1143,-1.1143,-1.1144,0,-1.0097,-1.0156,-1.017,-1.0287,-1.034,-1.0382,-1.0492,-1.0534,-1.0597,-1.0671,-1.0736,-1.0831,-1.0923,-1.0945,-1.1006,-1.1022,-1.1036,-1.1083,-1.1133,-1.1082,-1.1076,-1.1073,-1.1133,-1.1136,-1.1137,-1.1139,0,0,-0.996,-1.0135,-1.0138,-1.0193,-1.0319,-1.0367,-1.0415,-1.0505,-1.0538,-1.062,-1.0664,-1.0759,-1.0805,-1.0861,-1.0932,-1.0954,-1.0924,-1.1,-1.1004,-1.0982,-1.0949,-1.0911,-1.0906,-1.0968,-1.0967,-1.0967,-1.094,0,-0.9921,-1.0011,-1.0106,-1.0164,-1.022,-1.0323,-1.0365,-1.0447,-1.0518,-1.0577,-1.0656,-1.0722,-1.0777,-1.0812,-1.0838,-1.0922,-1.0919,-1.0926,-1.1009,-1.1011,-1.098,-1.0903,-1.0864,-1.0833,-1.0938,-1.0938,-1.0938,0,-0.9886,-0.9964,-1.0026,-1.0149,-1.0176,-1.0211,-1.0302,-1.0357,-1.0453,-1.0503,-1.0567,-1.0643,-1.0699,-1.0743,-1.0823,-1.0825,-1.0865,-1.0912,-1.0914,-1.0925,-1.097,-1.0911,-1.0826,-1.0821,-1.0935,-1.0935,-1.0935,0,-0.9781,-0.9901,-0.9954,-0.9998,-1.0142,-1.0165,-1.0226,-1.0323,-1.0371,-1.0451,-1.0484,-1.0568,-1.0615,-1.0679,-1.0776,-1.0799,-1.0846,-1.0898,-1.089,-1.0887,-1.0894,-1.0892,-1.0813,-1.0921,-1.0921,-1.0921,-1.0921,0,-0.9726,-0.976,-0.9909,-0.9941,-0.9984,-1.0093,-1.0132,-1.0202,-1.0288,-1.0337,-1.0432,-1.0476,-1.0602,-1.0661,-1.0738,-1.0792,-1.0813,-1.0856,-1.0875,-1.0847,-1.0841,-1.0874,-1.0879,-1.092,-1.092,-1.092,-1.092,0,-0.9615,-0.9715,-0.9781,-0.9912,-0.9946,-0.997,-1.0083,-1.0119,-1.0197,-1.0257,-1.0278,-1.0399,-1.0474,-1.0578,-1.0684,-1.0736,-1.078,-1.0812,-1.0747,-1.0759,-1.0745,-1.0745,-1.0684,-1.0682,-1.0789,-1.0788,-1.0787,0,-0.9573,-0.9602,-0.9736,-0.9776,-0.9834,-0.9896,-0.9946,-1.0056,-1.0104,-1.0216,-1.0239,-1.0321,-1.0392,-1.0507,-1.0606,-1.0688,-1.0723,-1.0696,-1.0735,-1.0706,-1.0722,-1.0719,-1.0723,-1.0685,-1.0684,-1.0682,-1.0681,0,-0.9489,-0.9537,-0.9606,-0.9691,-0.9748,-0.9821,-0.9899,-0.9926,-1.0052,-1.0102,-1.0179,-1.0234,-1.0344,-1.0425,-1.0521,-1.0585,-1.0654,-1.0668,-1.0671,-1.0641,-1.0603,-1.0624,-1.0721,-1.0669,-1.067,-1.0671,-1.0672,-1.0672,-0.9411,-0.9442,-0.9542,-0.9615,-0.9685,-0.9755,-0.9796,-0.9878,-0.9945,-1.0042,-1.0103,-1.0178,-1.0275,-1.0411,-1.0472,-1.0533,-1.0561,-1.0564,-1.0566,-1.0565,-1.0555,-1.0593,-1.0551,-1.0552,-1.0552,-1.0553,-1.0553,0,-0.9332,-0.9401,-0.9467,-0.9573,-0.9631,-0.9691,-0.978,-0.9825,-0.9889,-0.9974,-1.0042,-1.0132,-1.0211,-1.0316,-1.0403,-1.0432,-1.0466,-1.0451,-1.0449,-1.0463,-1.0525,-1.0514,-1.0422,-1.0422,-1.0422,-1.0422,-1.0422,-1.0422,-0.9297,-0.9353,-0.9413,-0.9505,-0.9575,-0.9649,-0.9694,-0.976,-0.9829,-0.9924,-0.999,-1.0058,-1.0151,-1.0246,-1.0322,-1.0351,-1.0378,-1.0353,-1.0392,-1.0447,-1.0459,-1.047,-1.046,-1.0358,-1.0358,-1.0326,-1.0325,-1.0325]}]]